Location: Navalespino
(40.5894°N, 4.2660°W)
Time: 23:01:24
(UTC+00:00)

USA 234 - Pass Details

Date: 18 April 2024
Orbit: 1099 x 1109 km, 123.0° (Epoch: 20 May)

Event Time Altitude Azimuth Distance (km) Brightness Sun altitude
Exits shadow 19:58:40 14° 114° (ESE) 2,656 4.6 -11.3°
Maximum altitude 20:04:17 63° 37° (NE) 1,219 3.5 -12.2°
Drops below altitude 10° 20:10:43 10° 318° (NW) 2,961 6.7 -13.3°
Sets 20:13:13 0° 315° (NW) 3,920 7.7 -13.7°
